This is the latest recevied weather packets stored in our database for station/object UA1CAS-13. If no packets are shown the sender has not sent any weather packets the latest 10 day(s).
| Time | Temp. | Humidity | Pressure | Rain* | Wind** | Luminosity | Snow |
|---|---|---|---|---|---|---|---|
| 1777976143 | 15.56° C | 48% | 998 hPa | - | - | - | - |
| 1777975242 | 16.67° C | 58% | 998 hPa | - | - | - | - |
| 1777974341 | 15.56° C | 63% | 998 hPa | - | - | - | - |
| 1777973440 | 15° C | 67% | 998 hPa | - | - | - | - |
| 1777972539 | 13.89° C | 72% | 999 hPa | - | - | - | - |
| 1777971638 | 13.33° C | 74% | 999 hPa | - | - | - | - |
| 1777970736 | 11.67° C | 81% | 999 hPa | - | - | - | - |
| 1777969835 | 10.56° C | 85% | 999 hPa | - | - | - | - |
| 1777968934 | 10.56° C | 84% | 999 hPa | - | - | - | - |
| 1777968033 | 10.56° C | 85% | 999 hPa | - | - | - | - |
| 1777967132 | 10.56° C | 84% | 999 hPa | - | - | - | - |
| 1777966231 | 10.56° C | 86% | 1000 hPa | - | - | - | - |
| 1777965330 | 10.56° C | 87% | 999 hPa | - | - | - | - |
| 1777964429 | 10° C | 90% | 999 hPa | - | - | - | - |
| 1777963528 | 9.44° C | 94% | 1000 hPa | - | - | - | - |
| 1777962627 | 9.44° C | 95% | 1000 hPa | - | - | - | - |
| 1777961726 | 9.44° C | 96% | 1000 hPa | - | - | - | - |
| 1777960825 | 9.44° C | 97% | 999 hPa | - | - | - | - |
| 1777959924 | 9.44° C | 98% | 999 hPa | - | - | - | - |
| 1777959022 | 9.44° C | 100% | 1000 hPa | - | - | - | - |
| 1777958121 | 8.89° C | 100% | 1000 hPa | - | - | - | - |
| 1777957220 | 8.89° C | 100% | 1000 hPa | - | - | - | - |
| 1777956319 | 8.89° C | 100% | 1000 hPa | - | - | - | - |
| 1777955418 | 8.89° C | 100% | 1000 hPa | - | - | - | - |
| 1777954516 | 8.33° C | 100% | 1000 hPa | - | - | - | - |
* Rain since midnight (hover to see other rain measurements)
** Current wind speed in m/s (hover to see current wind gust speed)